[[{"header":{"parameterUnit":"m.s-1","parameterCategory":1,"la1":30.2991,"la2":30.254,"lo1":-89.0895,"lo2":-89.0444,"dy":0.0017,"dx":0.0017,"nx":28,"ny":28,"refTime":"2025-12-03T03:00:00:Z","depth":0,"parameterNumber":2,"parameterNumberName":"U-component_of_WINDS"},"data":[0,0,0,0,0,0,0,0,0,0,0,0,0,0,0,0,0,0,0,0,0,0,0,0,0,0,0,0,0,0,0,0,0,0,0,0,0,0,0,0,0,0,0,0,0,0,0,0,0,0,0,0,0,0,0,0,0,0,0.6016,0.6016,0,0.5999,0.5998,0.5998,0.5989,0.5989,0.5989,0.5989,0.5969,0.5969,0.5968,0,0,0,0,0,0,0,0,0,0,0,0,0,0.604,0.604,0.6016,0.6016,0.6015,0.5999,0.5998,0.5998,0.5989,0.5989,0.5989,0.5989,0.5969,0.5969,0.5968,0,0,0,0,0,0,0,0,0,0,0,0,0,0.6027,0.604,0.6016,0.6009,0.6008,0.5999,0.5998,0.5998,0.5989,0.5989,0.5989,0.5989,0.597,0.5969,0.5968,0.5964,0,0,0.5966,0.5966,0,0,0,0,0,0,0,0,0.6028,0.6026,0.601,0.6009,0.6008,0.5996,0.6,0.5986,0.5989,0.5996,0.5989,0.5989,0.5978,0.5977,0.5973,0.5963,0.5962,0.5966,0.5965,0.5965,0.5965,0,0,0,0,0,0,0,0.6028,0.6027,0.6009,0.601,0.6009,0.6006,0.6004,0.5997,0.5987,0.5996,0.5995,0.5993,0.5978,0.5974,0.5973,0.5962,0.5966,0.5965,0.5965,0.5964,0.5948,0.5948,0,0,0,0,0,0,0.6031,0.6027,0.6009,0.6008,0.6018,0.6006,0.6004,0.6,0.5987,0.5986,0.5993,0.5993,0.5975,0.5974,0.5972,0.5967,0.5965,0.5964,0.5964,0.5948,0.5948,0.5948,0,0,0,0,0,0,0.6031,0.6029,0.601,0.6018,0.6015,0.6006,0.6001,0.6,0.5996,0.5986,0.5984,0.5991,0.5975,0.5973,0.5966,0.5966,0.5964,0.5963,0.5948,0.5948,0.5948,0.5955,0,0,0,0,0,0,0.6032,0.6029,0.6028,0.6018,0.6015,0.6005,0.6001,0.5999,0.5995,0.5994,0.5983,0.5982,0.5975,0.5967,0.5966,0.5965,0.5963,0.5948,0.5948,0.5948,0.5955,0.5955,0.5956,0,0,0,0,0,0.6033,0.603,0.6028,0.6026,0.6012,0.6005,0.6003,0.5996,0.5995,0.5993,0.5987,0.5982,0.5966,0.5967,0.5965,0.5963,0.5948,0.5948,0.5948,0.5955,0.5955,0.5956,0,0,0,0,0,0,0.6039,0.6028,0.6026,0.6019,0.6013,0.6003,0.6001,0.5997,0.599,0.599,0.5981,0.5979,0.5973,0.5968,0.5968,0.5959,0.5957,0.5956,0.5963,0.5963,0.5964,0.5965,0.5962,0,0,0,0,0,0.604,0.6035,0.6026,0.6021,0.6018,0.601,0.6006,0.6002,0.5995,0.5992,0.5985,0.5978,0.5971,0.5967,0.596,0.5955,0.5952,0.5953,0.5953,0.5954,0.5953,0.595,0.5951,0.5948,0.5948,0.5948,0,0,0.604,0.6034,0.6031,0.6022,0.6016,0.6011,0.6008,0.6002,0.5998,0.5991,0.5984,0.5979,0.597,0.5964,0.5961,0.5959,0.5954,0.5954,0.5954,0.5953,0.595,0.5951,0.5951,0.5948,0.5948,0.5948,0,0,0.604,0.6035,0.603,0.6026,0.6018,0.6013,0.6012,0.6003,0.6,0.5993,0.5988,0.5983,0.5972,0.5966,0.5962,0.5962,0.5957,0.596,0.5962,0.5959,0.5959,0.596,0.5959,0.596,0.5959,0.5959,0.5959,0,0.6042,0.6034,0.6029,0.6024,0.602,0.6014,0.601,0.6006,0.5996,0.5993,0.5992,0.5979,0.5973,0.5966,0.5966,0.5963,0.5961,0.596,0.596,0.596,0.596,0.596,0.596,0.596,0.596,0.596,0.596,0,0.6037,0.6032,0.603,0.6022,0.6018,0.6013,0.6007,0.6004,0.6,0.5995,0.5989,0.5982,0.5974,0.5972,0.5968,0.5965,0.5964,0.5962,0.5959,0.5961,0.5961,0.596,0.596,0.596,0.596,0.596,0,0,0.6038,0.6029,0.6028,0.6025,0.6017,0.6012,0.6008,0.6002,0.5999,0.5993,0.5989,0.5981,0.5979,0.5974,0.597,0.5967,0.5968,0.5965,0.5965,0.5966,0.5964,0.5966,0.5966,0.5966,0.5965,0.5965,0.5965,0,0.6036,0.6029,0.6024,0.6018,0.6014,0.6009,0.6006,0.6,0.5996,0.5992,0.5987,0.5981,0.5979,0.5976,0.5974,0.5968,0.5967,0.5968,0.5961,0.5961,0.5963,0.5966,0.5967,0.5967,0.5965,0.5965,0.5965,0,0.6032,0.6028,0.6022,0.6016,0.6013,0.601,0.6004,0.6,0.5995,0.5992,0.5988,0.5983,0.5979,0.5977,0.5971,0.5972,0.5969,0.5966,0.5966,0.5964,0.5963,0.5964,0.5967,0.5967,0.5964,0.5965,0.5965,0,0.6034,0.6026,0.6022,0.6019,0.6012,0.601,0.6006,0.6001,0.5997,0.5992,0.599,0.5985,0.5981,0.5977,0.5972,0.5971,0.5966,0.5964,0.5963,0.5964,0.5962,0.5962,0.5964,0.5961,0.5961,0.5961,0.5961,0,0.6032,0.6028,0.6022,0.6019,0.6016,0.6011,0.6007,0.6003,0.5999,0.5995,0.5991,0.5988,0.5981,0.5977,0.5973,0.5968,0.5967,0.5964,0.5963,0.5964,0.5965,0.5962,0.5962,0.5961,0.5961,0.5961,0.5961,0,0.6032,0.6028,0.6023,0.6017,0.6016,0.6013,0.6008,0.6005,0.6001,0.5997,0.5996,0.599,0.5985,0.5979,0.5972,0.597,0.5966,0.5964,0.5968,0.5967,0.5967,0.5967,0.5966,0.5966,0.5964,0.5964,0.5964,0,0.6031,0.6028,0.6022,0.602,0.6017,0.6013,0.6011,0.6006,0.6003,0.5998,0.5996,0.5991,0.5986,0.5979,0.5974,0.5969,0.5967,0.5967,0.5966,0.5968,0.5967,0.5967,0.5967,0.5967,0.5967,0.5967,0.5967,0,0.6029,0.6027,0.6024,0.602,0.6017,0.6013,0.6009,0.6008,0.6002,0.5999,0.5995,0.5992,0.5986,0.5981,0.5976,0.5972,0.5969,0.5968,0.5968,0.5969,0.5971,0.597,0.5968,0.5968,0.5968,0.5968,0.5968,0.5968,0.6028,0.6026,0.6022,0.6018,0.6015,0.6012,0.601,0.6006,0.6003,0.5998,0.5995,0.5991,0.5987,0.5979,0.5976,0.5973,0.5971,0.5971,0.597,0.597,0.5971,0.5972,0.5972,0.5972,0.5972,0.5972,0.5972,0,0.6026,0.6023,0.602,0.6016,0.6013,0.6012,0.6008,0.6005,0.6002,0.5998,0.5995,0.599,0.5986,0.5981,0.5977,0.5975,0.5973,0.5974,0.5973,0.5973,0.5972,0.5973,0.5975,0.5975,0.5975,0.5975,0.5975,0.5975,0.6024,0.6021,0.6019,0.6014,0.6012,0.6008,0.6006,0.6003,0.6001,0.5996,0.5993,0.599,0.5986,0.5982,0.5978,0.5977,0.5975,0.5976,0.5974,0.5973,0.5973,0.5972,0.5973,0.5976,0.5976,0.5975,0.5975,0.5975]},{"header":{"parameterUnit":"m.s-1","parameterCategory":1,"la1":30.2991,"la2":30.254,"lo1":-89.0895,"lo2":-89.0444,"dy":0.0017,"dx":0.0017,"nx":28,"ny":28,"refTime":"2025-12-03T03:00:00:Z","depth":0,"parameterNumber":3,"parameterNumberName":"V-component_of_WINDS"},"data":[0,0,0,0,0,0,0,0,0,0,0,0,0,0,0,0,0,0,0,0,0,0,0,0,0,0,0,0,0,0,0,0,0,0,0,0,0,0,0,0,0,0,0,0,0,0,0,0,0,0,0,0,0,0,0,0,0,0,-6.892,-6.8921,0,-6.9054,-6.9056,-6.9057,-6.8998,-6.8995,-6.8992,-6.8989,-6.912,-6.9127,-6.9133,0,0,0,0,0,0,0,0,0,0,0,0,0,-6.8606,-6.8612,-6.8919,-6.8921,-6.8923,-6.9054,-6.9056,-6.9057,-6.8999,-6.8995,-6.8991,-6.8987,-6.9118,-6.9126,-6.9134,0,0,0,0,0,0,0,0,0,0,0,0,0,-6.8741,-6.8614,-6.8919,-6.8909,-6.891,-6.9053,-6.9056,-6.9058,-6.9,-6.8995,-6.899,-6.8985,-6.9116,-6.9125,-6.9135,-6.9294,0,0,-6.9165,-6.9169,0,0,0,0,0,0,0,0,-6.8734,-6.8753,-6.8909,-6.891,-6.8911,-6.9004,-6.8993,-6.9137,-6.9001,-6.8965,-6.8988,-6.8983,-6.9085,-6.9097,-6.9133,-6.93,-6.9306,-6.9166,-6.9172,-6.9176,-6.9179,0,0,0,0,0,0,0,-6.8724,-6.8747,-6.8972,-6.8911,-6.8913,-6.8896,-6.891,-6.902,-6.9051,-6.8968,-6.8964,-6.8981,-6.9085,-6.9124,-6.9136,-6.9308,-6.9166,-6.9174,-6.9181,-6.9184,-6.9611,-6.9616,0,0,0,0,0,0,-6.8716,-6.8739,-6.8968,-6.8976,-6.8809,-6.8906,-6.8922,-6.8979,-6.905,-6.9056,-6.8985,-6.8978,-6.911,-6.9125,-6.914,-6.9331,-6.9176,-6.9185,-6.9191,-6.9606,-6.9612,-6.9618,0,0,0,0,0,0,-6.8709,-6.8737,-6.8963,-6.8857,-6.8884,-6.8917,-6.8982,-6.8985,-6.9024,-6.9063,-6.9067,-6.902,-6.9106,-6.9127,-6.9257,-6.9335,-6.919,-6.9199,-6.9599,-6.9608,-6.9615,-6.9714,0,0,0,0,0,0,-6.8701,-6.8735,-6.8797,-6.8859,-6.889,-6.9079,-6.8987,-6.8991,-6.9041,-6.9033,-6.9097,-6.9102,-6.9104,-6.9242,-6.9266,-6.9346,-6.9206,-6.9593,-6.9603,-6.9613,-6.9704,-6.9725,-6.9743,0,0,0,0,0,-6.869,-6.8818,-6.8801,-6.8829,-6.8969,-6.9084,-6.9101,-6.9103,-6.9048,-6.911,-6.9135,-6.91,-6.9322,-6.9256,-6.9283,-6.9366,-6.9588,-6.96,-6.9612,-6.9696,-6.9721,-6.9742,0,0,0,0,0,0,-6.8763,-6.8826,-6.8807,-6.896,-6.9018,-6.9074,-6.9152,-6.9129,-6.9201,-6.919,-6.9186,-6.9201,-6.9336,-6.9364,-6.9289,-6.9524,-6.9446,-6.9465,-6.9501,-6.9525,-6.9544,-6.9534,-6.9215,0,0,0,0,0,-6.8798,-6.8887,-6.8937,-6.9067,-6.9097,-6.912,-6.9169,-6.9165,-6.9223,-6.9247,-6.9281,-6.9337,-6.9419,-6.9473,-6.9551,-6.9708,-6.972,-6.9778,-6.9797,-6.9813,-6.9829,-6.9913,-6.9939,-6.9658,-6.9658,-6.9658,0,0,-6.8869,-6.8915,-6.8971,-6.9083,-6.9127,-6.9218,-6.914,-6.924,-6.9307,-6.9261,-6.9387,-6.9414,-6.9476,-6.962,-6.9685,-6.9647,-6.9909,-6.9828,-6.9841,-6.9848,-6.9928,-6.9955,-6.9978,-6.9667,-6.9665,-6.9664,0,0,-6.9046,-6.909,-6.9203,-6.9249,-6.9316,-6.9331,-6.9358,-6.9418,-6.9435,-6.9561,-6.9529,-6.9607,-6.9749,-6.9795,-6.9836,-7.003,-7.0001,-7.0055,-7.0156,-7.0238,-7.026,-7.0279,-7.0348,-7.0373,-7.0071,-7.0071,-7.0071,0,-6.9126,-6.9264,-6.9264,-6.9367,-6.9416,-6.9381,-6.9494,-6.9538,-6.9627,-6.9661,-6.9618,-6.9796,-6.9835,-6.9989,-7.0036,-7.0071,-7.0101,-7.0048,-7.0257,-7.0276,-7.0295,-7.036,-7.0386,-7.0077,-7.0077,-7.0076,-7.0075,0,-6.9358,-6.9454,-6.9537,-6.9626,-6.9685,-6.9793,-6.9807,-6.9866,-6.9857,-6.9875,-7.0004,-7.0049,-7.0136,-7.0172,-7.0163,-7.0325,-7.0299,-7.0257,-7.0179,-7.0328,-7.0389,-7.0414,-7.0086,-7.0084,-7.0082,-7.0081,0,0,-6.9586,-6.9674,-6.9704,-6.9744,-6.9816,-6.9889,-6.9994,-7.0081,-7.0131,-7.0193,-7.0281,-7.0402,-7.0363,-7.041,-7.0406,-7.0478,-7.0628,-7.0426,-7.0428,-7.0462,-7.0808,-7.084,-7.087,-7.0609,-7.0614,-7.0617,-7.0803,0,-6.9768,-6.9955,-6.9958,-7.0129,-7.0217,-7.0184,-7.0275,-7.0328,-7.0348,-7.0424,-7.0444,-7.053,-7.0473,-7.0501,-7.0571,-7.0595,-7.0698,-7.0582,-7.0689,-7.0692,-7.0675,-7.0902,-7.0936,-7.1109,-7.0827,-7.0831,-7.0834,0,-7.0006,-7.0078,-7.0258,-7.0318,-7.0354,-7.0437,-7.0516,-7.059,-7.0648,-7.0657,-7.0711,-7.0695,-7.08,-7.0719,-7.0864,-7.0785,-7.0828,-7.0847,-7.0853,-7.0863,-7.0773,-7.0918,-7.1165,-7.1191,-7.0872,-7.0869,-7.0866,0,-7.0154,-7.0296,-7.0422,-7.0457,-7.0529,-7.0588,-7.062,-7.0674,-7.0726,-7.0794,-7.0827,-7.0906,-7.0949,-7.101,-7.1016,-7.0956,-7.1161,-7.108,-7.117,-7.117,-7.1215,-7.1212,-7.1472,-7.1243,-7.1242,-7.1242,-7.1241,0,-7.0357,-7.0469,-7.049,-7.0567,-7.0691,-7.0692,-7.0814,-7.084,-7.0889,-7.097,-7.0945,-7.1021,-7.1024,-7.1101,-7.1105,-7.1224,-7.1243,-7.1252,-7.1252,-7.1255,-7.1254,-7.1284,-7.1272,-7.1249,-7.1247,-7.1246,-7.1245,0,-7.0544,-7.0562,-7.0698,-7.0755,-7.0772,-7.0861,-7.0909,-7.0982,-7.0999,-7.1102,-7.1126,-7.1152,-7.1242,-7.1253,-7.1357,-7.136,-7.1503,-7.149,-7.1484,-7.1482,-7.1572,-7.1563,-7.186,-7.1899,-7.1644,-7.1646,-7.1648,0,-7.0673,-7.0758,-7.0825,-7.0879,-7.0915,-7.1001,-7.1054,-7.1058,-7.1114,-7.1187,-7.1251,-7.1339,-7.1409,-7.1553,-7.158,-7.166,-7.1648,-7.1747,-7.166,-7.166,-7.165,-7.1645,-7.1653,-7.1764,-7.1766,-7.1769,-7.1771,0,-7.09,-7.0905,-7.0983,-7.1066,-7.113,-7.1194,-7.1255,-7.1299,-7.131,-7.1374,-7.1467,-7.1521,-7.1628,-7.1715,-7.1793,-7.1824,-7.1799,-7.1798,-7.1823,-7.1827,-7.182,-7.1825,-7.153,-7.1791,-7.1789,-7.1787,-7.1786,-7.1786,-7.1062,-7.1136,-7.1195,-7.1283,-7.1329,-7.1387,-7.1458,-7.1485,-7.1563,-7.1652,-7.1648,-7.175,-7.1805,-7.1908,-7.1944,-7.2022,-7.199,-7.2026,-7.2035,-7.2044,-7.2053,-7.1807,-7.2036,-7.2036,-7.2035,-7.2035,-7.2034,0,-7.1287,-7.1324,-7.1405,-7.1491,-7.156,-7.1533,-7.1598,-7.1657,-7.1748,-7.1802,-7.1872,-7.1978,-7.2062,-7.2096,-7.2178,-7.2233,-7.2224,-7.2255,-7.2251,-7.2258,-7.2078,-7.2048,-7.2261,-7.2261,-7.2261,-7.2261,-7.2261,-7.2261,-7.1413,-7.1538,-7.1549,-7.1696,-7.1731,-7.1832,-7.1872,-7.1923,-7.1967,-7.2087,-7.2158,-7.218,-7.2225,-7.231,-7.2386,-7.2393,-7.2424,-7.246,-7.2463,-7.2294,-7.2271,-7.2249,-7.2221,-7.2467,-7.2467,-7.2637,-7.2638,-7.2639]}]]